GW1618 Weather Reports


time (UTC)temp
C
wind
direction
speed
KPH
gust
KPH
rain 1hr
cm
rain 24hr
cm
rain mn
cm
humidity
%
barometer
mb
20260906235431 25 217 3.2 11.3 0.00 0.00 0.00 37 1013.9
20260906234932 24 247 3.2 4.8 0.00 0.00 0.00 37 1013.9
20260906234437 23 146 4.8 16.1 0.00 0.00 0.00 38 1013.9
20260906233929 23 149 6.4 16.1 0.00 0.00 0.00 38 1013.9
20260906233426 23 165 4.8 9.7 0.00 0.00 0.00 38 1013.9
20260906232919 23 149 4.8 11.3 0.00 0.00 0.00 38 1013.9
20260906232707 23 240 4.8 11.3 0.00 0.00 0.00 38 1014.0
20260906231913 23 189 3.2 9.7 0.00 0.00 0.00 36 1014.0
20260906231656 23 225 3.2 9.7 0.00 0.00 0.00 37 1014.0
20260906230909 23 246 3.2 6.4 0.00 0.00 0.00 36 1014.0
20260906230405 23 146 3.2 6.4 0.00 0.00 0.00 36 1014.0
20260906230151 23 343 3.2 8.0 0.00 0.00 0.00 37 1014.0
20260906225404 23 185 3.2 8.0 0.00 0.00 0.00 37 1014.2
20260906224903 23 104 3.2 12.9 0.00 0.00 0.00 38 1014.2
20260906224658 23 162 4.8 12.9 0.00 0.00 0.00 38 1014.2
20260906223901 23 224 4.8 8.0 0.00 0.00 0.00 36 1014.2
20260906223702 23 190 3.2 8.0 0.00 0.00 0.00 37 1014.2
20260906222902 22 314 3.2 4.8 0.00 0.00 0.00 38 1014.2
20260906222404 22 312 3.2 6.4 0.00 0.00 0.00 38 1014.2
20260906221903 22 293 4.8 6.4 0.00 0.00 0.00 40 1014.2
20260906221401 22 302 3.2 6.4 0.00 0.00 0.00 39 1014.2
20260906221206 22 298 1.6 6.4 0.00 0.00 0.00 38 1014.4
20260906220408 22 63 3.2 8.0 0.00 0.00 0.00 40 1014.4
20260906215859 22 50 3.2 9.7 0.00 0.00 0.00 40 1014.4
20260906215400 22 155 4.8 11.3 0.00 0.00 0.00 41 1014.4
20260906214857 21 142 6.4 11.3 0.00 0.00 0.00 44 1014.4
20260906214350 21 24 4.8 9.7 0.00 0.00 0.00 45 1014.4
20260906214133 22 48 3.2 9.7 0.00 0.00 0.00 44 1014.5
20260906213349 22 103 3.2 6.4 0.00 0.00 0.00 43 1014.5
20260906212849 21 121 3.2 8.0 0.00 0.00 0.00 45 1014.5
20260906212643 21 351 3.2 8.0 0.00 0.00 0.00 46 1014.6
20260906211848 21 4 4.8 8.0 0.00 0.00 0.00 47 1014.6
20260906211344 21 16 3.2 8.0 0.00 0.00 0.00 47 1014.6
20260906210838 21 314 3.2 6.4 0.00 0.00 0.00 47 1014.7
20260906210336 21 354 3.2 6.4 0.00 0.00 0.00 47 1014.7
20260906205836 21 37 1.6 6.4 0.00 0.00 0.00 48 1014.7
20260906205332 21 49 3.2 6.4 0.00 0.00 0.00 49 1014.8
20260906204834 20 9 3.2 4.8 0.00 0.00 0.00 50 1014.8
20260906204624 20 354 3.2 6.4 0.00 0.00 0.00 51 1014.8
20260906203833 20 359 3.2 6.4 0.00 0.00 0.00 53 1014.9
20260906203330 20 359 4.8 6.4 0.00 0.00 0.00 53 1014.9
20260906203119 19 349 4.8 8.0 0.00 0.00 0.00 54 1014.9
20260906202620 19 359 6.4 9.7 0.00 0.00 0.00 54 1015.0
20260906201832 19 19 6.4 9.7 0.00 0.00 0.00 56 1015.0
20260906201331 18 9 8.0 9.7 0.00 0.00 0.00 56 1015.0
20260906200826 18 359 8.0 11.3 0.00 0.00 0.00 57 1015.1
20260906200321 18 359 8.0 11.3 0.00 0.00 0.00 57 1015.1
20260906200117 18 9 9.7 11.3 0.00 0.00 0.00 57 1015.1
20260906195320 18 15 8.0 11.3 0.00 0.00 0.00 57 1015.3
20260906195117 18 359 8.0 14.5 0.00 0.00 0.00 59 1015.3
20260906194318 18 30 8.0 14.5 0.00 0.00 0.00 59 1015.3
20260906193817 18 9 8.0 14.5 0.00 0.00 0.00 58 1015.4
20260906193318 18 13 6.4 11.3 0.00 0.00 0.00 60 1015.4
20260906193120 18 17 4.8 9.7 0.00 0.00 0.00 60 1015.4
20260906192346 18 20 4.8 9.7 0.00 0.00 0.00 61 1015.5
20260906191310 18 352 4.8 9.7 0.00 0.00 0.00 63 1015.5
20260906190812 17 20 6.4 11.3 0.00 0.00 0.00 62 1015.6
20260906190312 17 4 6.4 11.3 0.00 0.00 0.00 64 1015.6
20260906185808 17 15 6.4 11.3 0.00 0.00 0.00 64 1015.6
20260906185309 17 37 6.4 9.7 0.00 0.00 0.00 64 1015.6
20260906184809 17 359 6.4 9.7 0.00 0.00 0.00 66 1015.6
20260906184306 17 14 6.4 9.7 0.00 0.00 0.00 67 1015.6
20260906183808 17 9 8.0 9.7 0.00 0.00 0.00 67 1015.7
20260906183608 17 9 8.0 9.7 0.00 0.00 0.00 67 1015.7
20260906182803 16 23 8.0 9.7 0.00 0.00 0.00 69 1015.7
20260906182306 16 359 8.0 9.7 0.00 0.00 0.00 68 1015.6
20260906181756 16 13 8.0 9.7 0.00 0.00 0.00 68 1015.6
20260906181244 16 9 6.4 9.7 0.00 0.00 0.00 68 1015.6
20260906180745 16 19 4.8 9.7 0.00 0.00 0.00 70 1015.5
20260906180240 16 16 6.4 9.7 0.00 0.00 0.00 70 1015.5
20260906175733 16 4 6.4 9.7 0.00 0.00 0.00 70 1015.5
20260906175534 16 355 4.8 8.0 0.00 0.00 0.00 70 1015.7
20260906174732 16 327 4.8 8.0 0.00 0.00 0.00 72 1015.7
20260906174235 16 331 4.8 8.0 0.00 0.00 0.00 72 1015.7
20260906174039 16 328 4.8 6.4 0.00 0.00 0.00 74 1015.8
20260906173233 16 330 3.2 6.4 0.00 0.00 0.00 73 1015.8
20260906172731 15 331 3.2 6.4 0.00 0.00 0.00 75 1015.8
20260906172232 15 4 4.8 6.4 0.00 0.00 0.00 76 1015.9
20260906171732 15 351 4.8 8.0 0.00 0.00 0.00 76 1015.9
20260906171231 15 23 6.4 8.0 0.00 0.00 0.00 77 1015.9
20260906170736 15 13 4.8 8.0 0.00 0.00 0.00 77 1016.0
20260906170538 15 333 4.8 6.4 0.00 0.00 0.00 77 1016.0
20260906165730 15 4 4.8 8.0 0.00 0.00 0.00 77 1016.0
20260906165233 14 4 6.4 8.0 0.00 0.00 0.00 78 1016.0
20260906165037 14 9 6.4 9.7 0.00 0.00 0.00 78 1016.0
20260906164229 14 23 6.4 9.7 0.00 0.00 0.00 78 1016.0
20260906163730 14 4 4.8 8.0 0.00 0.00 0.00 78 1016.0
20260906163231 14 15 4.8 8.0 0.00 0.00 0.00 78 1016.0
20260906162722 14 9 4.8 8.0 0.00 0.00 0.00 78 1016.0
20260906162219 14 19 3.2 6.4 0.00 0.00 0.00 78 1016.0
20260906162015 14 34 3.2 6.4 0.00 0.00 0.00 79 1016.0
20260906161215 14 4 3.2 4.8 0.00 0.00 0.00 80 1016.0
20260906161008 13 61 1.6 4.8 0.00 0.00 0.00 81 1015.8
20260906160206 13 38 1.6 3.2 0.00 0.00 0.00 82 1015.8
20260906155705 13 38 1.6 4.8 0.00 0.00 0.00 83 1015.8
20260906155206 13 62 3.2 4.8 0.00 0.00 0.00 84 1015.7
20260906154704 13 47 3.2 4.8 0.00 0.00 0.00 84 1015.7
20260906154452 13 27 1.6 4.8 0.00 0.00 0.00 86 1015.7
20260906153658 12 359 1.6 4.8 0.00 0.00 0.00 87 1015.6
20260906153158 12 45 1.6 4.8 0.00 0.00 0.00 88 1015.6
20260906152649 12 9 3.2 6.4 0.00 0.00 0.00 88 1015.6
20260906152145 12 61 3.2 6.4 0.00 0.00 0.00 89 1015.5
20260906151651 12 17 3.2 6.4 0.00 0.00 0.00 90 1015.5
20260906151146 12 36 3.2 6.4 0.00 0.00 0.00 90 1015.5
20260906150644 11 9 1.6 4.8 0.00 0.00 0.00 90 1015.5
20260906150140 11 31 0.0 1.6 0.00 0.00 0.00 90 1015.5
20260906145634 11 31 0.0 1.6 0.00 0.00 0.00 90 1015.5
20260906145134 11 31 0.0 1.6 0.00 0.00 0.00 90 1015.5
20260906144634 11 30 0.0 0.0 0.00 0.00 0.00 90 1015.5
20260906144132 11 31 0.0 0.0 0.00 0.00 0.00 90 1015.5
20260906143925 11 31 0.0 1.6 0.00 0.00 0.00 90 1015.5
20260906143137 11 31 0.0 1.6 0.00 0.00 0.00 89 1015.5
20260906142624 11 31 1.6 4.8 0.00 0.00 0.00 89 1015.4
20260906142121 11 31 1.6 4.8 0.00 0.00 0.00 89 1015.4
20260906141853 11 9 1.6 3.2 0.00 0.00 0.00 89 1015.4
20260906141135 11 351 1.6 3.2 0.00 0.00 0.00 89 1015.4
20260906140351 11 246 0.0 1.6 0.00 0.00 0.00 89 1015.4
20260906135609 11 246 1.6 3.2 0.00 0.00 0.00 89 1015.4
20260906135102 11 246 1.6 4.8 0.00 0.00 0.00 89 1015.4
20260906134601 11 246 1.6 4.8 0.00 0.00 0.00 89 1015.4
20260906134101 11 236 0.0 3.2 0.00 0.00 0.00 89 1015.1
20260906133603 11 344 0.0 1.6 0.00 0.00 0.00 89 1015.1
20260906133110 11 344 0.0 0.0 0.00 0.00 0.00 88 1015.1
20260906132827 11 344 0.0 0.0 0.00 0.00 0.00 88 1015.0
20260906132046 11 344 0.0 1.6 0.00 0.00 0.00 88 1015.0
20260906131524 11 344 0.0 1.6 0.00 0.00 0.00 88 1015.0
20260906131015 11 344 0.0 1.6 0.00 0.00 0.00 88 1015.1
20260906130512 11 344 1.6 3.2 0.00 0.00 0.00 88 1015.1
20260906130010 11 344 1.6 3.2 0.00 0.00 0.00 88 1015.1
20260906125512 11 359 1.6 3.2 0.00 0.00 0.00 88 1015.2
20260906125007 11 359 1.6 3.2 0.00 0.00 0.00 88 1015.2
20260906124744 11 348 1.6 3.2 0.00 0.00 0.00 88 1015.2
20260906124002 11 319 0.0 3.2 0.00 0.00 0.00 88 1015.4
20260906123440 11 221 0.0 1.6 0.00 0.00 0.00 88 1015.4
20260906122934 11 221 0.0 1.6 0.00 0.00 0.00 88 1015.4
20260906122433 11 221 0.0 1.6 0.00 0.00 0.00 88 1015.3
20260906121931 11 221 1.6 3.2 0.00 0.00 0.00 88 1015.3
20260906121429 11 221 1.6 6.4 0.00 0.00 0.00 88 1015.3
20260906120927 11 221 3.2 6.4 0.00 0.00 0.00 88 1015.4
20260906120418 11 240 3.2 4.8 0.00 0.00 0.00 88 1015.4
20260906115904 11 226 1.6 4.8 0.00 0.00 0.00 88 1015.4
20260906115402 11 254 3.2 4.8 0.00 0.00 0.00 88 1015.4
20260906114905 11 240 3.2 6.4 0.00 0.00 0.00 88 1015.4
20260906114408 11 210 3.2 6.4 0.00 0.00 0.00 88 1015.4
20260906113903 12 210 4.8 6.4 0.00 0.00 0.00 88 1015.5
20260906113403 12 218 3.2 6.4 0.00 0.00 0.00 88 1015.5
20260906113151 12 219 3.2 6.4 0.00 0.00 0.00 88 1015.5
20260906112403 12 217 3.2 6.4 0.00 0.00 0.00 88 1015.6
20260906112153 12 231 3.2 6.4 0.00 0.00 0.00 89 1015.6
20260906111401 12 210 3.2 6.4 0.00 0.00 0.00 88 1015.6
20260906110904 12 233 3.2 6.4 0.00 0.00 0.00 89 1015.6
20260906110401 12 235 3.2 6.4 0.00 0.00 0.00 89 1015.6
20260906105939 12 223 3.2 6.4 0.00 0.00 0.00 89 1015.6
20260906104905 12 226 1.6 3.2 0.00 0.00 0.00 89 1015.5
20260906104405 12 227 1.6 3.2 0.00 0.00 0.00 89 1015.5
20260906103906 12 227 1.6 4.8 0.00 0.00 0.00 89 1015.4
20260906103403 12 231 1.6 4.8 0.00 0.00 0.00 89 1015.4
20260906102902 12 236 1.6 4.8 0.00 0.00 0.00 89 1015.4
20260906102400 12 216 1.6 4.8 0.00 0.00 0.00 89 1015.5
20260906101858 12 227 1.6 4.8 0.00 0.03 0.00 89 1015.5
20260906101358 12 245 0.0 3.2 0.00 0.03 0.00 89 1015.5
20260906100900 12 28 0.0 0.0 0.00 0.03 0.00 89 1015.4
20260906100630 12 28 0.0 0.0 0.00 0.03 0.00 89 1015.4
20260906095834 12 28 0.0 0.0 0.00 0.03 0.00 89 1015.4
20260906095338 12 28 0.0 1.6 0.00 0.03 0.00 88 1015.2
20260906094834 12 28 1.6 3.2 0.00 0.03 0.00 88 1015.2
20260906094332 12 28 1.6 4.8 0.00 0.03 0.00 88 1015.2
20260906094110 12 9 3.2 4.8 0.00 0.03 0.00 88 1015.1
20260906093318 12 359 3.2 4.8 0.00 0.03 0.00 88 1015.1
20260906092818 12 9 1.6 4.8 0.00 0.03 0.00 88 1015.1
20260906092316 12 348 1.6 4.8 0.00 0.03 0.00 88 1015.5
20260906091808 12 253 1.6 4.8 0.00 0.03 0.00 88 1015.5
20260906091603 12 244 0.0 3.2 0.00 0.03 0.00 87 1015.5
20260906090807 12 245 0.0 3.2 0.00 0.03 0.00 87 1015.5
20260906090545 12 129 0.0 0.0 0.00 0.03 0.00 86 1015.5
20260906085802 12 129 0.0 1.6 0.00 0.03 0.00 85 1015.5
20260906085307 12 129 0.0 3.2 0.00 0.03 0.00 85 1015.5
20260906084755 12 129 1.6 3.2 0.00 0.03 0.00 85 1015.5
20260906084250 12 129 0.0 3.2 0.00 0.03 0.00 85 1015.5
20260906083753 12 48 0.0 1.6 0.00 0.03 0.00 85 1015.4
20260906083246 12 48 0.0 0.0 0.00 0.03 0.00 85 1015.4
20260906082745 12 48 0.0 1.6 0.00 0.03 0.00 85 1015.4
20260906082238 12 48 1.6 3.2 0.00 0.03 0.00 85 1015.4
20260906081737 12 48 1.6 3.2 0.00 0.03 0.00 85 1015.4
20260906081523 12 359 0.0 1.6 0.00 0.03 0.00 85 1015.4
20260906081023 12 355 0.0 1.6 0.00 0.03 0.00 85 1015.4
20260906080231 12 355 0.0 1.6 0.00 0.03 0.00 85 1015.4
20260906075730 12 355 0.0 1.6 0.00 0.03 0.00 85 1015.4
20260906075231 12 355 0.0 3.2 0.00 0.03 0.00 84 1015.5
20260906074728 12 355 0.0 3.2 0.00 0.03 0.00 84 1015.5
20260906074230 12 359 0.0 1.6 0.00 0.03 0.00 84 1015.5
20260906073707 12 359 0.0 1.6 0.00 0.03 0.00 85 1015.5
20260906073209 12 359 0.0 3.2 0.00 0.03 0.00 85 1015.5
20260906072654 12 359 0.0 3.2 0.00 0.03 0.00 85 1015.5
20260906072147 12 359 0.0 1.6 0.00 0.03 0.00 85 1015.5
20260906071917 12 359 0.0 0.0 0.00 0.03 0.00 84 1015.5
20260906071129 12 359 0.0 1.6 0.00 0.03 0.00 84 1015.6
20260906070913 12 359 1.6 3.2 0.00 0.03 0.00 84 1015.6
20260906070132 13 359 1.6 3.2 0.00 0.03 0.00 84 1015.6
20260906065631 13 359 0.0 1.6 0.00 0.03 0.03 84 1015.6
20260906065133 13 359 0.0 0.0 0.00 0.03 0.03 83 1015.6
20260906064634 13 359 0.0 1.6 0.00 0.03 0.03 83 1015.6
20260906064110 13 359 1.6 3.2 0.00 0.03 0.03 83 1015.6
20260906063900 13 359 1.6 4.8 0.00 0.03 0.03 83 1015.6
20260906063103 13 359 1.6 4.8 0.00 0.03 0.03 83 1015.6
20260906062600 13 13 1.6 4.8 0.00 0.03 0.03 84 1015.7
20260906062100 13 22 0.0 1.6 0.00 0.03 0.03 83 1015.7
20260906061600 13 22 0.0 3.2 0.00 0.03 0.03 83 1015.7
20260906061054 13 22 1.6 4.8 0.00 0.03 0.03 83 1015.7
20260906060548 13 22 3.2 8.0 0.00 0.03 0.03 82 1015.7
20260906060032 13 359 4.8 9.7 0.00 0.03 0.03 82 1015.7
20260906055532 13 9 3.2 9.7 0.00 0.03 0.03 80 1015.5
20260906055326 13 249 0.0 1.6 0.00 0.03 0.03 80 1015.5
20260906054544 13 249 0.0 1.6 0.00 0.03 0.03 80 1015.5
20260906054029 13 249 1.6 1.6 0.00 0.03 0.03 80 1015.6
20260906053530 13 249 0.0 1.6 0.00 0.03 0.03 80 1015.6
20260906053028 14 238 0.0 1.6 0.00 0.03 0.03 79 1015.6
20260906052819 14 238 0.0 0.0 0.00 0.03 0.03 78 1015.8
20260906052034 14 238 0.0 1.6 0.00 0.03 0.03 77 1015.8
20260906051529 14 238 1.6 3.2 0.00 0.03 0.03 77 1015.8
20260906051032 14 238 3.2 4.8 0.00 0.03 0.03 77 1015.8
20260906050818 14 236 3.2 4.8 0.00 0.03 0.03 77 1015.8
20260906050009 15 220 1.6 4.8 0.00 0.03 0.03 77 1015.8
20260906045504 14 239 0.0 3.2 0.00 0.03 0.03 77 1015.9
20260906045021 15 221 0.0 1.6 0.00 0.03 0.03 76 1015.9
20260906044015 15 221 0.0 1.6 0.00 0.03 0.03 74 1015.8
20260906043445 15 221 1.6 3.2 0.00 0.03 0.03 75 1015.8
20260906042936 15 221 1.6 3.2 0.00 0.03 0.03 74 1015.8
20260906042438 15 217 1.6 3.2 0.00 0.03 0.03 74 1015.9
20260906041928 15 217 1.6 4.8 0.00 0.03 0.03 73 1015.9
20260906041429 15 218 1.6 4.8 0.00 0.03 0.03 73 1015.9
20260906040942 15 349 0.0 1.6 0.00 0.03 0.03 71 1015.7
20260906035902 15 349 1.6 3.2 0.00 0.03 0.03 70 1015.7
20260906035403 16 344 1.6 3.2 0.00 0.03 0.03 69 1015.7
20260906034907 16 221 0.0 1.6 0.00 0.03 0.03 69 1015.7
20260906034417 16 209 1.6 3.2 0.00 0.03 0.03 68 1015.7
20260906033849 16 209 1.6 3.2 0.00 0.03 0.03 67 1015.6
20260906033343 16 290 1.6 3.2 0.00 0.03 0.03 66 1015.6
20260906032839 16 280 0.0 3.2 0.00 0.03 0.03 67 1015.6
20260906032337 16 58 1.6 3.2 0.00 0.03 0.03 62 1015.5
20260906031836 16 58 1.6 4.8 0.00 0.03 0.03 62 1015.5
20260906031631 17 4 1.6 4.8 0.00 0.03 0.03 62 1015.5
20260906030836 17 288 1.6 3.2 0.00 0.03 0.03 59 1015.5
20260906030338 17 288 1.6 4.8 0.00 0.03 0.03 59 1015.5
20260906025924 17 288 1.6 4.8 0.00 0.03 0.03 59 1015.5
20260906024832 18 73 3.2 4.8 0.00 0.05 0.03 56 1015.5
20260906024335 18 321 4.8 6.4 0.00 0.08 0.03 55 1015.5
20260906023817 18 300 3.2 6.4 0.00 0.08 0.03 54 1015.5
20260906023316 18 296 1.6 4.8 0.00 0.08 0.03 55 1015.5
20260906022824 18 265 1.6 4.8 0.00 0.10 0.03 56 1015.5
20260906022555 18 346 0.0 1.6 0.00 0.10 0.03 56 1015.4
20260906021804 18 346 0.0 3.2 0.00 0.10 0.03 55 1015.4
20260906021306 18 346 1.6 4.8 0.00 0.10 0.03 55 1015.4
20260906020808 18 346 3.2 4.8 0.00 0.10 0.03 55 1015.5
20260906020310 18 359 3.2 4.8 0.00 0.10 0.03 51 1015.5
20260906015806 18 9 1.6 4.8 0.00 0.10 0.03 51 1015.5
20260906015307 19 21 1.6 3.2 0.00 0.10 0.03 51 1015.5
20260906014755 19 4 3.2 4.8 0.00 0.10 0.03 49 1015.5
20260906014558 19 4 3.2 6.4 0.00 0.10 0.03 48 1015.5
20260906013741 19 359 3.2 6.4 0.00 0.10 0.03 50 1015.5
20260906013238 19 355 3.2 6.4 0.00 0.10 0.03 49 1015.5
20260906012732 19 359 4.8 8.0 0.00 0.10 0.03 50 1015.5
20260906012226 20 9 6.4 9.7 0.00 0.10 0.03 52 1015.4
20260906011723 20 20 6.4 9.7 0.00 0.10 0.03 50 1015.4
20260906011217 20 359 4.8 8.0 0.00 0.10 0.03 49 1015.4
20260906010717 20 348 4.8 6.4 0.00 0.10 0.03 43 1015.3
20260906010218 20 331 4.8 8.0 0.00 0.10 0.03 42 1015.3
20260906005712 20 329 4.8 8.0 0.00 0.10 0.03 42 1015.3
20260906005213 20 323 4.8 6.4 0.00 0.10 0.03 43 1015.2
20260906004712 20 331 4.8 6.4 0.00 0.10 0.03 42 1015.2
20260906004209 20 333 6.4 8.0 0.00 0.10 0.03 44 1015.2
20260906003710 20 359 4.8 8.0 0.00 0.10 0.03 45 1015.3
20260906003211 20 334 3.2 6.4 0.00 0.10 0.03 45 1015.3
20260906002712 20 335 3.2 6.4 0.00 0.10 0.03 44 1015.3
20260906002212 20 46 4.8 8.0 0.00 0.10 0.03 48 1015.3
20260906001711 20 4 6.4 9.7 0.00 0.10 0.03 50 1015.3
20260906001205 20 4 6.4 9.7 0.00 0.10 0.03 50 1015.3
20260906000705 20 359 8.0 14.5 0.00 0.10 0.03 51 1015.2
20260906000204 20 9 8.0 14.5 0.00 0.10 0.03 52 1015.2
20260905235955 20 30 9.7 17.7 0.00 0.10 0.03 51 1015.2